Simultaneous Nadir Overpasses (SNOs) Predictions

Prediction of SNOs between LANDSAT-8 and METOP-A Satellite Orbit:

Table of predicted SNOs for the next 14.0 days since TLE Epoch: 2/2/2018
Index Date (LANDSAT-8) Time (LANDSAT-8) Lat,Lon (LANDSAT-8) SZA (LANDSAT-8 ) Date (METOP-A) Time (METOP-A) Lat,Lon (METOP-A) SZA (METOP-A ) Distance(km) Time Diff (sec)
1 02/03/2018 13:23:26 -81.29,-158.47 80.45 02/03/2018 13:22:21 -81.29,-158.50 80.48 0.69 65
2 02/03/2018 14:12:52 81.30, 9.30 99.56 02/03/2018 14:13:01 81.30, 9.18 99.55 1.93 9
3 02/06/2018 08:57:41 -81.28, -92.19 81.32 02/06/2018 08:56:40 -81.28, -92.27 81.36 1.39 61
4 02/06/2018 09:47:07 81.29, 75.55 98.68 02/06/2018 09:47:20 81.29, 75.40 98.68 2.45 13
5 02/09/2018 04:31:55 -81.29, -25.56 82.18 02/09/2018 04:30:58 -81.29, -25.67 82.22 1.95 57
6 02/09/2018 05:21:21 81.30, 142.15 97.82 02/09/2018 05:21:38 81.30, 142.00 97.81 2.57 17
7 02/12/2018 00:06:10 -81.28, 40.66 83.13 02/12/2018 00:05:17 -81.28, 40.52 83.16 2.24 53
8 02/12/2018 00:55:35 81.31,-151.28 96.92 02/12/2018 00:55:56 81.30,-151.43 96.91 2.58 21
9 02/14/2018 19:40:23 -81.29, 107.22 84.05 02/14/2018 19:39:34 -81.29, 107.09 84.09 2.20 49




NCC Satellite Simultaneous Nadir Overpasses (SNOs) Prediction Service
